Home > Weather > Lyon > Past weeks

Flag for France Past Weather in Lyon, Rhône-Alpes, France — Yesterday and Last 2 Weeks

Now
72 °F

Partly sunny.


Feels Like: 75 °F
Forecast: 59 / 72 °F
Wind: No wind

Location: Lyon / Bron

Current Time: Jun 25, 2016 at 10:57:13 AM

Latest Report: Jun 25, 2016 at 10:30 AM


Visibility: N/A

Pressure: 30.04 "Hg

Humidity: 69%

Dew Point: 61 °F

Location of LyonLocation

Past Weather in Lyon — Graph

°F

Lyon Temperature Yesterday

Maximum temperature yesterday: 90 °F (at 4:00 PM)
Minimum temperature yesterday: 61 °F (at 6:30 AM)
Average temperature yesterday: 77 °F

High & Low Weather Summary for the Past Weeks

 TemperatureHumidityPressure
High91 °F (Jun 23, 3:30 PM)100% (Jun 16, 3:30 AM)30.27 "Hg (Jun 16, 3:30 AM)
Low54 °F (Jun 20, 4:00 AM)29% (Jun 23, 8:00 PM)29.53 "Hg (Jun 15, 8:00 PM)
Average68 °F68%29.96 "Hg
* Reported Jun 10 9:00 AM — Jun 25 9:30 AM, Lyon, Weather by CustomWeather, © 2016

Note: Actual official high and low records may vary slightly from our data, if they occured in-between our weather recording intervals... More about our weather records

Advertising

Lyon Weather History for the Previous 24 Hours

Scroll right to see more
 ConditionsComfort  
Time TempWeatherWind HumidityBarometerVisibility
9:30 AM
Sat, Jun 25
68 °FSunny.No wind78%30.01 "Hg10 mi
9:00 AM68 °FSunny.No wind83%30.01 "Hg10 mi
8:30 AM66 °FSunny.No wind88%30.01 "Hg10 mi
8:00 AM68 °FSunny.No wind88%30.01 "Hg10 mi
7:30 AM66 °FSunny.No wind94%30.01 "Hg10 mi
7:00 AM64 °FScattered clouds.No wind94%30.01 "HgN/A
6:30 AM64 °FClear.No wind94%30.01 "Hg10 mi
6:00 AM64 °FClear.No wind94%30.01 "Hg10 mi
5:30 AM64 °FClear.No wind94%30.01 "Hg10 mi
5:00 AM66 °FRain. Partly cloudy.No wind88%30.01 "HgN/A
4:30 AM66 °FRain. Overcast.No wind83%30.04 "HgN/A
4:00 AM68 °FOvercast.3 mph78%30.04 "HgN/A
3:30 AM68 °FPartly cloudy.No wind83%30.04 "HgN/A
3:00 AM68 °FMostly cloudy.No wind88%30.04 "HgN/A
2:30 AM66 °FPartly cloudy.No wind94%30.04 "HgN/A
2:00 AM66 °FClear.No wind94%30.04 "Hg10 mi
1:30 AM68 °FClear.No wind88%30.04 "Hg10 mi
1:00 AM68 °FClear.No wind88%30.04 "Hg10 mi
12:30 AM68 °FClear.No wind88%30.04 "Hg10 mi
12:00 AM68 °FClear.No wind94%30.01 "Hg10 mi
11:30 PM
Fri, Jun 24
68 °FMild.No wind88%30.04 "HgN/A
11:00 PM68 °FThunderstorms. Mostly cloudy.No wind88%30.04 "HgN/A
10:30 PM68 °FHail. Broken clouds.24 mph83%30.07 "Hg2 mi
10:00 PM79 °FThunderstorms. Cloudy.17 mph61%30.01 "HgN/A
9:30 PM82 °FThundershowers. Cloudy.12 mph55%29.98 "HgN/A
9:00 PM82 °FThundershowers. Cloudy.10 mph58%29.95 "HgN/A
8:30 PM84 °FWarm.8 mph51%29.95 "HgN/A
8:00 PM84 °FWarm.7 mph51%29.95 "HgN/A
7:30 PM88 °FPassing clouds.9 mph46%29.95 "HgN/A
7:00 PM90 °FPassing clouds.8 mph41%29.95 "HgN/A
6:30 PM90 °FPassing clouds.8 mph41%29.95 "HgN/A
6:00 PM90 °FPassing clouds.7 mph38%29.98 "HgN/A
5:30 PM90 °FPassing clouds.6 mph36%29.98 "HgN/A
5:00 PM90 °FPassing clouds.7 mph36%29.98 "HgN/A
4:30 PM90 °FPassing clouds.9 mph36%30.01 "HgN/A
4:00 PM90 °FPassing clouds.6 mph38%30.01 "HgN/A
3:30 PM88 °FPassing clouds.5 mph40%30.01 "HgN/A
3:00 PM88 °FPassing clouds.8 mph40%30.01 "HgN/A
2:30 PM88 °FPassing clouds.9 mph43%30.04 "HgN/A
2:00 PM86 °FPassing clouds.9 mph43%30.04 "HgN/A
1:30 PM86 °FPassing clouds.8 mph46%30.07 "HgN/A
1:00 PM86 °FPassing clouds.8 mph46%30.07 "HgN/A
12:30 PM84 °FPassing clouds.8 mph43%30.07 "HgN/A
12:00 PM84 °FPassing clouds.6 mph43%30.07 "HgN/A
11:30 AM82 °FSunny.2 mph37%30.09 "Hg10 mi
11:00 AM81 °FSunny.2 mph34%30.09 "Hg10 mi
10:30 AM79 °FPassing clouds.3 mph42%30.09 "HgN/A
10:00 AM77 °FPassing clouds.3 mph42%30.09 "HgN/A
Weather by CustomWeather, © 2016

See weather overviewHow to use our weather pages